Weiss Lake Weather Center

Moon Phase Calendar



Weiss Lake Water Level
Online Cameras

 


      

Current Conditions in Cedar Bluff
12/2/2022 12:24:30 AM

40°F
Feels Like 40
Clouds
Humidity
79%
Pressure
30.45"
Wind
1 mph (W)
Dew Point
34°F
UV Index
0/10 (Low)
Visibility
6 mi

Hourly Forecast

Date & Time Fri, Dec 2
12:00 AM
Fri, Dec 2
1:00 AM
Fri, Dec 2
2:00 AM
Fri, Dec 2
3:00 AM
Fri, Dec 2
4:00 AM
Fri, Dec 2
5:00 AM
Fri, Dec 2
6:00 AM
Fri, Dec 2
7:00 AM
Fri, Dec 2
8:00 AM
Fri, Dec 2
9:00 AM
Fri, Dec 2
10:00 AM
Fri, Dec 2
11:00 AM
Fri, Dec 2
12:00 PM
Fri, Dec 2
1:00 PM
Fri, Dec 2
2:00 PM
Fri, Dec 2
3:00 PM
Fri, Dec 2
4:00 PM
Fri, Dec 2
5:00 PM
Fri, Dec 2
6:00 PM
Fri, Dec 2
7:00 PM
Fri, Dec 2
8:00 PM
Fri, Dec 2
9:00 PM
Fri, Dec 2
10:00 PM
Fri, Dec 2
11:00 PM
Sat, Dec 3
12:00 AM
Sat, Dec 3
1:00 AM
Sat, Dec 3
2:00 AM
Sat, Dec 3
3:00 AM
Sat, Dec 3
4:00 AM
Sat, Dec 3
5:00 AM
Sat, Dec 3
6:00 AM
Sat, Dec 3
7:00 AM
Sat, Dec 3
8:00 AM
Sat, Dec 3
9:00 AM
Sat, Dec 3
10:00 AM
Sat, Dec 3
11:00 AM
Sat, Dec 3
12:00 PM
Sat, Dec 3
1:00 PM
Sat, Dec 3
2:00 PM
Sat, Dec 3
3:00 PM
Sat, Dec 3
4:00 PM
Sat, Dec 3
5:00 PM
Sat, Dec 3
6:00 PM
Sat, Dec 3
7:00 PM
Sat, Dec 3
8:00 PM
Sat, Dec 3
9:00 PM
Sat, Dec 3
10:00 PM
Sat, Dec 3
11:00 PM
Condition
Clouds

Clouds

Clouds

Clouds

Clouds

Clouds

Clouds

Clouds

Clouds

Clouds

Clouds

Clouds

Clouds

Clouds

Clouds

Clouds

Clouds

Clouds

Clouds

Clouds

Clouds

Clouds

Clouds

Clouds

Clouds

Clouds

Clouds

Rain

Clouds

Clouds

Rain

Clouds

Rain

Rain

Rain

Rain

Clouds

Clouds

Clouds

Clouds

Rain

Clouds

Clouds

Clouds

Clouds

Clouds

Clouds

Clouds
Temperature 40°F39°F39°F38°F38°F40°F38°F40°F43°F47°F51°F55°F59°F61°F62°F61°F58°F53°F52°F51°F52°F53°F53°F53°F53°F53°F54°F54°F54°F54°F54°F55°F56°F57°F59°F58°F59°F62°F62°F61°F60°F59°F59°F59°F58°F57°F56°F54°F
Feels Like 37°F36°F37°F35°F34°F36°F35°F37°F40°F44°F49°F53°F57°F60°F61°F60°F57°F52°F51°F51°F51°F52°F52°F52°F53°F53°F53°F54°F53°F54°F53°F54°F56°F57°F58°F58°F59°F62°F63°F62°F61°F60°F59°F59°F58°F57°F55°F53°F
Cloudiness 82%71%64%48%43%46%43%86%92%93%88%90%81%64%61%60%62%58%63%100%100%99%97%95%95%89%93%96%95%96%94%100%100%100%100%100%100%99%99%100%100%99%99%100%100%100%100%98%
Visibility 6 mi6 mi6 mi6 mi6 mi6 mi6 mi6 mi6 mi6 mi6 mi6 mi6 mi6 mi6 mi6 mi6 mi6 mi6 mi6 mi6 mi6 mi6 mi6 mi6 mi6 mi6 mi6 mi6 mi6 mi6 mi6 mi6 mi6 mi6 mi6 mi6 mi6 mi6 mi6 mi6 mi6 mi6 mi6 mi6 mi6 mi6 mi6 mi
Precipitation 0%0%0%0%0%0%0%0%0%0%0%0%0%0%0%0%0%0%0%0%0%0%0%0%0%0%10%30%17%13%32%41%57%71%81%91%80%11%15%18%35%14%15%5%2%6%0%0%
Humidity 79%77%75%76%75%68%72%69%62%55%54%55%57%57%59%64%72%87%91%92%92%91%91%90%90%90%90%92%93%92%93%92%91%92%91%95%94%91%91%95%98%98%99%98%96%95%94%94%
Dew Point 34°F33°F32°F32°F31°F30°F29°F30°F31°F31°F34°F39°F43°F45°F47°F49°F49°F49°F49°F49°F49°F50°F50°F50°F50°F50°F50°F51°F51°F52°F51°F52°F53°F54°F55°F56°F57°F59°F59°F59°F59°F58°F58°F58°F57°F55°F53°F51°F
Pressure 30.45"30.45"30.45"30.45"30.45"30.45"30.47"30.47"30.47"30.47"30.45"30.42"30.36"30.33"30.3"30.3"30.3"30.33"30.33"30.36"30.36"30.36"30.36"30.33"30.33"30.33"30.33"30.33"30.3"30.3"30.33"30.33"30.33"30.33"30.33"30.33"30.3"30.27"30.27"30.27"30.27"30.27"30.3"30.3"30.3"30.3"30.3"30.33"
Wind Speed 4.1 mph4.1 mph3.4 mph5 mph4.7 mph5.5 mph3.7 mph4.4 mph5.5 mph7.4 mph7.7 mph9.1 mph9.9 mph10.1 mph10.7 mph9.4 mph8.2 mph5.5 mph5 mph5 mph5.1 mph5 mph5.1 mph5.5 mph5.8 mph4 mph3.3 mph2.2 mph3.3 mph4.3 mph1.6 mph2.7 mph5.2 mph5.2 mph4.9 mph4.2 mph5.1 mph6.8 mph5.6 mph4.1 mph3.6 mph3.6 mph2.9 mph2.4 mph4 mph4 mph3.9 mph3.6 mph
Wind
Direction
89°
E
86°
E
40°
NE
72°
ENE
105°
ESE
114°
ESE
52°
NE
87°
E
101°
E
125°
SE
128°
SE
139°
SE
149°
SSE
159°
SSE
161°
SSE
160°
SSE
153°
SSE
140°
SE
135°
SE
130°
SE
131°
SE
132°
SE
135°
SE
139°
SE
144°
SE
147°
SSE
130°
SE
133°
SE
147°
SSE
150°
SSE
224°
SW
204°
SSW
214°
SW
228°
SW
237°
WSW
213°
SSW
213°
SSW
227°
SW
234°
SW
230°
SW
221°
SW
230°
SW
265°
W
283°
WNW
307°
NW
308°
NW
335°
NNW
342°
NNW

Daily Forecast

Date High Low Precip. Humidity
Today
Dec 2

Clouds
62 °F
38 °F
0%
55%
Saturday
Dec 3

Rain
61 °F
53 °F
91%
95%
Sunday
Dec 4

Rain
52 °F
43 °F
54%
78%
Monday
Dec 5

Rain
53 °F
40 °F
100%
65%
Tuesday
Dec 6

Rain
61 °F
52 °F
100%
98%
Wednesday
Dec 7

Rain
66 °F
61 °F
81%
93%
Thursday
Dec 8

Clouds
63 °F
47 °F
0%
61%
Friday
Dec 9

Clouds
58 °F
45 °F
0%
64%
Saturday
Dec 10

Rain
68 °F
53 °F
35%
86%
Sunday
Dec 11

Rain
72 °F
61 °F
20%
71%
Monday
Dec 12

Rain
66 °F
39 °F
100%
63%
Tuesday
Dec 13

Clear
56 °F
34 °F
0%
49%
Wednesday
Dec 14

Clear
59 °F
38 °F
0%
51%
Thursday
Dec 15

Clouds
65 °F
51 °F
0%
77%
Friday
Dec 16

Rain
68 °F
62 °F
100%
90%
Saturday
Dec 17

Rain
71 °F
63 °F
100%
80%

Temperature 8-14 Day Outlook



Precipitation 8-14 Day Outlook




Quick Links
Weiss Lake News
Weiss Lake Photos
Weiss Lake Videos




About Us
Contact Us
Site Map
Search Site
Advertise With Us
   
www.LakeWeiss.info
THE WEISS LAKE WEBSITE

Copyright 2022, Lakes Online
Privacy    |    Legal